Location: Newark
(18.7969°S, 47.4789°E)
Time: 05:01:44
(UTC+00:00)

Envisat - Visible Passes

Search period start: 24 January 2020 00:00
Search period end: 03 February 2020 00:00
Orbit: 764 x 766 km, 98.1° (Epoch: 23 January)

Date Brightness Start Highest point End Pass type
(mag) Time Alt. Az. Time Alt. Az. Time Alt. Az.
24 Jan 5.7 16:09:01 10° SSW 16:13:05 24° WSW 16:17:08 10° NW visible
26 Jan 6.4 16:36:23 10° SW 16:38:20 12° WSW 16:40:17 10° W visible
27 Jan 6.1 01:58:52 10° ENE 02:02:16 18° ESE 02:05:40 10° SSE visible
27 Jan 5.1 15:57:21 10° SSW 16:01:53 32° WSW 16:06:21 10° NW visible
29 Jan 6.1 16:24:01 10° SW 16:27:10 17° WSW 16:30:16 10° WNW visible
30 Jan 6.4 01:48:39 10° E 01:51:04 13° ESE 01:53:30 10° SE visible
01 Feb 5.6 02:12:07 10° NE 02:16:20 27° ESE 02:20:34 10° SSE visible
01 Feb 5.9 16:12:06 10° SSW 16:15:57 22° WSW 16:19:48 10° WNW visible
